User: anonymous   Login
Location: Austin
(30.3000°N, 97.7500°W)
Time: 21:14:09
(UTC-05:00)
Language:

Cosmos 1500 Rocket - Orbit

View from above orbital plane
View from above orbital plane
View from above satellite
View from above satellite

Ground track
Ground track

The orbit data is extracted from the following two-line orbital elements,

1 14373U 83099B   24200.45491570  .00001205  00000-0  13804-3 0  9997
2 14373  82.5411 344.4802 0018880 325.4031  34.5955 14.85051915183641
Epoch (UTC): 18 July 2024 10:55:04
Eccentricity: 0.0018880
inclination: 82.5411°
perigee height: 600 km
apogee height: 626 km
right ascension of ascending node: 344.4802°
argument of perigee: 325.4031°
revolutions per day: 14.85051915
mean anomaly at epoch: 34.5955°
orbit number at epoch: 18364

The dashed part of the orbit path shows where the satellite is in the earth's shadow,  

DLR